JBU1281 KJFK-KBOS

Flight info

Callsign JBU1281
Flight time 0h 46m
Altitude 21000
Route CRI CRI CLIMB MERIT ROBUCK3
Aircraft A320/M-SDE3FGHIRWY/LB1

Departure

Time 2026-05-06 22:45
Airport John F. Kennedy International Airport (KJFK)

Arrival

Time 2026-05-06 23:32
Airport Boston Logan International Airport (KBOS)
Time Latitude Longitude Altitude Speed Heading
2026-05-06 22:37 40.64472 -73.77299 20 ft 0 kts 91°
2026-05-06 22:43 40.64461 -73.77257 20 ft 7 kts 123°
2026-05-06 22:43 40.64445 -73.77185 20 ft 9 kts 99°
2026-05-06 22:43 40.64432 -73.77091 20 ft 11 kts 101°
2026-05-06 22:43 40.64412 -73.76984 21 ft 11 kts 104°
2026-05-06 22:44 40.64378 -73.76889 20 ft 9 kts 136°
2026-05-06 22:44 40.64330 -73.76906 21 ft 8 kts 207°
2026-05-06 22:44 40.64276 -73.76943 21 ft 10 kts 208°
2026-05-06 22:44 40.64210 -73.76992 21 ft 12 kts 210°
2026-05-06 22:45 40.64102 -73.77075 22 ft 41 kts 210°
2026-05-06 22:45 40.63625 -73.77445 22 ft 114 kts 211°
2026-05-06 22:45 40.62805 -73.78129 180 ft 153 kts 212°
2026-05-06 22:45 40.61943 -73.78930 926 ft 151 kts 212°
2026-05-06 22:46 40.61040 -73.79651 1602 ft 156 kts 213°
2026-05-06 22:46 40.60045 -73.80431 1876 ft 178 kts 213°
2026-05-06 22:46 40.58928 -73.81310 2188 ft 195 kts 214°
2026-05-06 22:46 40.57710 -73.82283 2594 ft 213 kts 214°
2026-05-06 22:47 40.56414 -73.83374 3128 ft 228 kts 218°
2026-05-06 22:47 40.55002 -73.84412 3811 ft 242 kts 200°
2026-05-06 22:47 40.53265 -73.84472 4577 ft 262 kts 172°
2026-05-06 22:47 40.51542 -73.83523 5382 ft 274 kts 159°
2026-05-06 22:48 40.49850 -73.82312 6180 ft 280 kts 158°
2026-05-06 22:48 40.48137 -73.81050 6990 ft 285 kts 158°
2026-05-06 22:48 40.46394 -73.79760 7791 ft 289 kts 157°
2026-05-06 22:48 40.44731 -73.78211 8565 ft 303 kts 139°
2026-05-06 22:49 40.43595 -73.75819 9295 ft 318 kts 112°
2026-05-06 22:49 40.43269 -73.72917 10009 ft 328 kts 86°
2026-05-06 22:49 40.43806 -73.69952 10317 ft 347 kts 64°
2026-05-06 22:49 40.45159 -73.67255 10649 ft 359 kts 49°
2026-05-06 22:50 40.46759 -73.64698 11257 ft 364 kts 47°
2026-05-06 22:50 40.48398 -73.62132 11918 ft 368 kts 47°
2026-05-06 22:50 40.50053 -73.59552 12564 ft 372 kts 47°
2026-05-06 22:50 40.51733 -73.56944 13231 ft 376 kts 47°
2026-05-06 22:51 40.53536 -73.54391 13857 ft 377 kts 37°
2026-05-06 22:51 40.55744 -73.52600 14426 ft 372 kts 18°
2026-05-06 22:51 40.58143 -73.51442 15023 ft 373 kts 15°
2026-05-06 22:51 40.60601 -73.50302 15643 ft 376 kts 14°
2026-05-06 22:52 40.63078 -73.49163 16269 ft 379 kts 14°
2026-05-06 22:52 40.65604 -73.48001 16828 ft 383 kts 15°
2026-05-06 22:52 40.68127 -73.46833 16996 ft 383 kts 15°
2026-05-06 22:52 40.70619 -73.45674 17035 ft 394 kts 15°
2026-05-06 22:53 40.73316 -73.44430 17032 ft 407 kts 15°
2026-05-06 22:53 40.75888 -73.43228 17026 ft 390 kts 15°
2026-05-06 22:53 40.78418 -73.42031 17035 ft 384 kts 15°
2026-05-06 22:53 40.80958 -73.40833 17021 ft 383 kts 15°
2026-05-06 22:54 40.83472 -73.39648 17032 ft 383 kts 15°
2026-05-06 22:54 40.85986 -73.38465 17033 ft 383 kts 15°
2026-05-06 22:54 40.88510 -73.37281 17498 ft 386 kts 15°
2026-05-06 22:54 40.91058 -73.36089 18091 ft 390 kts 15°
2026-05-06 22:55 40.93619 -73.34890 18613 ft 392 kts 15°
2026-05-06 22:55 40.96195 -73.33679 19143 ft 395 kts 15°
2026-05-06 22:55 40.98798 -73.32455 19680 ft 397 kts 15°
2026-05-06 22:55 41.01407 -73.31229 20238 ft 400 kts 15°
2026-05-06 22:56 41.04039 -73.29990 20770 ft 402 kts 15°
2026-05-06 22:56 41.06680 -73.28739 20967 ft 403 kts 15°
2026-05-06 22:56 41.09313 -73.27486 21010 ft 401 kts 15°
2026-05-06 22:56 41.11932 -73.26241 21011 ft 400 kts 15°
2026-05-06 22:57 41.14552 -73.24998 21012 ft 399 kts 15°
2026-05-06 22:57 41.17164 -73.23760 21009 ft 399 kts 15°
2026-05-06 22:57 41.19784 -73.22518 21012 ft 399 kts 15°
2026-05-06 22:57 41.22401 -73.21275 21010 ft 399 kts 15°
2026-05-06 22:58 41.25011 -73.20035 21010 ft 399 kts 15°
2026-05-06 22:58 41.27635 -73.18789 21012 ft 399 kts 15°
2026-05-06 22:58 41.30148 -73.17260 21011 ft 405 kts 29°
2026-05-06 22:58 41.32313 -73.14750 21016 ft 422 kts 49°
2026-05-06 22:59 41.33832 -73.11306 21013 ft 443 kts 69°
2026-05-06 22:59 41.34802 -73.07343 21008 ft 459 kts 72°
2026-05-06 22:59 41.35745 -73.03217 21020 ft 473 kts 73°
2026-05-06 22:59 41.36696 -72.98982 21018 ft 485 kts 73°
2026-05-06 23:00 41.37672 -72.94631 21017 ft 495 kts 73°
2026-05-06 23:00 41.38666 -72.90211 21019 ft 503 kts 73°
2026-05-06 23:00 41.39687 -72.85699 20826 ft 510 kts 73°
2026-05-06 23:00 41.40712 -72.81218 20845 ft 500 kts 73°
2026-05-06 23:01 41.41718 -72.76825 20833 ft 493 kts 73°
2026-05-06 23:01 41.42707 -72.72495 20843 ft 487 kts 73°
2026-05-06 23:01 41.43686 -72.68199 20845 ft 482 kts 73°
2026-05-06 23:01 41.44650 -72.63944 20856 ft 476 kts 73°
2026-05-06 23:02 41.45598 -72.59736 20858 ft 470 kts 73°
2026-05-06 23:02 41.46527 -72.55617 20863 ft 459 kts 73°
2026-05-06 23:02 41.47134 -72.52942 20853 ft 454 kts 73°
2026-05-06 23:02 41.48040 -72.48952 20861 ft 446 kts 73°
2026-05-06 23:03 41.48931 -72.45009 20863 ft 441 kts 73°
2026-05-06 23:03 41.49805 -72.41110 20857 ft 436 kts 73°
2026-05-06 23:03 41.50665 -72.37249 20854 ft 432 kts 73°
2026-05-06 23:03 41.51514 -72.33425 20855 ft 428 kts 73°
2026-05-06 23:04 41.52358 -72.29626 20860 ft 425 kts 73°
2026-05-06 23:04 41.53192 -72.25865 20844 ft 421 kts 73°
2026-05-06 23:04 41.54021 -72.22128 20842 ft 418 kts 73°
2026-05-06 23:04 41.54840 -72.18431 20841 ft 413 kts 73°
2026-05-06 23:05 41.55654 -72.14792 20839 ft 404 kts 73°
2026-05-06 23:05 41.56450 -72.11245 20841 ft 395 kts 73°
2026-05-06 23:05 41.57229 -72.07760 20842 ft 388 kts 73°
2026-05-06 23:05 41.57992 -72.04336 20843 ft 381 kts 73°
2026-05-06 23:06 41.58736 -72.00971 20850 ft 375 kts 73°
2026-05-06 23:06 41.59462 -71.97658 20848 ft 369 kts 73°
2026-05-06 23:06 41.60176 -71.94395 20850 ft 363 kts 73°
2026-05-06 23:06 41.60878 -71.91183 20851 ft 358 kts 73°
2026-05-06 23:07 41.61568 -71.88013 20860 ft 353 kts 73°
2026-05-06 23:07 41.62247 -71.84895 20879 ft 346 kts 73°
2026-05-06 23:07 41.62918 -71.81827 20871 ft 342 kts 73°
2026-05-06 23:07 41.63594 -71.78750 20868 ft 338 kts 73°
2026-05-06 23:08 41.64253 -71.75755 20862 ft 334 kts 73°
2026-05-06 23:08 41.64898 -71.72789 20860 ft 330 kts 73°
2026-05-06 23:08 41.65522 -71.69880 20867 ft 322 kts 73°
2026-05-06 23:08 41.66114 -71.67081 20864 ft 312 kts 73°
2026-05-06 23:09 41.66698 -71.64298 20868 ft 308 kts 74°
2026-05-06 23:09 41.67294 -71.61438 20866 ft 330 kts 74°
2026-05-06 23:09 41.67939 -71.58432 20837 ft 352 kts 70°
2026-05-06 23:09 41.68843 -71.55237 20786 ft 374 kts 68°
2026-05-06 23:10 41.69814 -71.51901 20729 ft 395 kts 68°
2026-05-06 23:10 41.70843 -71.48380 20680 ft 415 kts 68°
2026-05-06 23:10 41.71923 -71.44705 20650 ft 435 kts 67°
2026-05-06 23:10 41.73296 -71.41012 20620 ft 451 kts 58°
2026-05-06 23:11 41.74897 -71.37312 20596 ft 467 kts 58°
2026-05-06 23:11 41.76561 -71.33519 20569 ft 480 kts 58°
2026-05-06 23:11 41.78280 -71.29617 20552 ft 490 kts 58°
2026-05-06 23:11 41.80010 -71.25697 20491 ft 486 kts 58°
2026-05-06 23:12 41.81722 -71.21824 20417 ft 482 kts 58°
2026-05-06 23:12 41.83429 -71.17968 20339 ft 479 kts 58°
2026-05-06 23:12 41.85134 -71.14124 19713 ft 476 kts 58°
2026-05-06 23:12 41.86822 -71.10340 18308 ft 470 kts 58°
2026-05-06 23:13 41.88506 -71.06602 16844 ft 464 kts 58°
2026-05-06 23:13 41.90160 -71.02927 15504 ft 457 kts 58°
2026-05-06 23:13 41.91782 -70.99309 14491 ft 444 kts 58°
2026-05-06 23:13 41.93367 -70.95755 13090 ft 444 kts 58°
2026-05-06 23:14 41.94951 -70.92203 11979 ft 436 kts 58°
2026-05-06 23:14 41.96454 -70.88832 11707 ft 405 kts 58°
2026-05-06 23:14 41.97849 -70.85702 11545 ft 376 kts 58°
2026-05-06 23:14 41.99148 -70.82775 11363 ft 355 kts 58°
2026-05-06 23:15 42.00395 -70.79961 10902 ft 347 kts 58°
2026-05-06 23:15 42.01623 -70.77189 10371 ft 342 kts 58°
2026-05-06 23:15 42.02812 -70.74496 10049 ft 330 kts 58°
2026-05-06 23:15 42.03975 -70.71859 9546 ft 326 kts 58°
2026-05-06 23:16 42.05128 -70.69245 8992 ft 326 kts 58°
2026-05-06 23:16 42.06289 -70.66624 8691 ft 325 kts 58°
2026-05-06 23:16 42.07442 -70.64028 8440 ft 323 kts 58°
2026-05-06 23:16 42.08600 -70.61434 8179 ft 322 kts 58°
2026-05-06 23:17 42.09787 -70.58894 7971 ft 315 kts 48°
2026-05-06 23:17 42.11364 -70.56926 7637 ft 312 kts 38°
2026-05-06 23:17 42.12998 -70.55019 7435 ft 304 kts 27°
2026-05-06 23:17 42.14857 -70.53956 7470 ft 279 kts
2026-05-06 23:18 42.16731 -70.53513 7256 ft 270 kts 359°
2026-05-06 23:18 42.18578 -70.53239 7013 ft 265 kts 359°
2026-05-06 23:18 42.20398 -70.52865 6629 ft 272 kts
2026-05-06 23:18 42.22255 -70.51950 5911 ft 292 kts 12°
2026-05-06 23:19 42.24222 -70.51294 5491 ft 287 kts 358°
2026-05-06 23:19 42.26117 -70.51409 5462 ft 258 kts 338°
2026-05-06 23:19 42.27674 -70.52118 5479 ft 222 kts 325°
2026-05-06 23:19 42.29030 -70.53124 5075 ft 218 kts 318°
2026-05-06 23:20 42.30293 -70.54138 5031 ft 203 kts 317°
2026-05-06 23:20 42.31448 -70.55082 4974 ft 187 kts 316°
2026-05-06 23:20 42.32574 -70.56008 4489 ft 197 kts 316°
2026-05-06 23:20 42.33816 -70.56983 4093 ft 218 kts 321°
2026-05-06 23:21 42.35219 -70.57991 4090 ft 234 kts 322°
2026-05-06 23:21 42.36602 -70.59134 4035 ft 231 kts 313°
2026-05-06 23:21 42.37894 -70.60434 4031 ft 231 kts 313°
2026-05-06 23:21 42.39177 -70.61733 4019 ft 230 kts 313°
2026-05-06 23:22 42.40460 -70.63032 4026 ft 231 kts 313°
2026-05-06 23:22 42.41743 -70.64357 4018 ft 232 kts 313°
2026-05-06 23:22 42.43028 -70.65680 4018 ft 232 kts 314°
2026-05-06 23:22 42.44356 -70.66936 4016 ft 232 kts 315°
2026-05-06 23:23 42.45695 -70.68155 4011 ft 232 kts 316°
2026-05-06 23:23 42.47040 -70.69364 4011 ft 232 kts 316°
2026-05-06 23:23 42.48382 -70.70570 3946 ft 229 kts 316°
2026-05-06 23:23 42.49697 -70.71746 3411 ft 227 kts 316°
2026-05-06 23:24 42.51011 -70.72940 3049 ft 227 kts 316°
2026-05-06 23:24 42.52256 -70.74242 2991 ft 221 kts 302°
2026-05-06 23:24 42.53209 -70.75859 2999 ft 219 kts 297°
2026-05-06 23:24 42.54093 -70.77523 2996 ft 217 kts 296°
2026-05-06 23:25 42.54965 -70.79185 2999 ft 216 kts 296°
2026-05-06 23:25 42.55833 -70.80848 3000 ft 216 kts 296°
2026-05-06 23:25 42.56674 -70.82436 2995 ft 196 kts 296°
2026-05-06 23:25 42.57457 -70.83901 3014 ft 188 kts 294°
2026-05-06 23:26 42.57815 -70.85476 2999 ft 168 kts 259°
2026-05-06 23:26 42.57401 -70.86899 2998 ft 163 kts 238°
2026-05-06 23:26 42.56790 -70.88192 3002 ft 163 kts 236°
2026-05-06 23:26 42.56150 -70.89482 2991 ft 163 kts 236°
2026-05-06 23:27 42.55528 -70.90719 2998 ft 155 kts 233°
2026-05-06 23:27 42.54717 -70.91641 2994 ft 160 kts 212°
2026-05-06 23:27 42.53650 -70.92186 2998 ft 165 kts 206°
2026-05-06 23:27 42.52605 -70.92687 2982 ft 155 kts 206°
2026-05-06 23:28 42.51591 -70.93179 2875 ft 151 kts 207°
2026-05-06 23:28 42.50618 -70.93651 2714 ft 147 kts 208°
2026-05-06 23:28 42.49674 -70.94110 2545 ft 143 kts 207°
2026-05-06 23:28 42.48726 -70.94571 2365 ft 142 kts 207°
2026-05-06 23:29 42.47797 -70.95024 2169 ft 142 kts 206°
2026-05-06 23:29 42.46857 -70.95481 1980 ft 144 kts 205°
2026-05-06 23:29 42.45919 -70.95937 1793 ft 144 kts 205°
2026-05-06 23:29 42.44970 -70.96398 1600 ft 146 kts 204°
2026-05-06 23:30 42.44010 -70.96864 1401 ft 149 kts 204°
2026-05-06 23:30 42.43047 -70.97330 1193 ft 138 kts 204°
2026-05-06 23:30 42.42191 -70.97744 1014 ft 126 kts 202°
2026-05-06 23:30 42.41376 -70.98140 854 ft 125 kts 202°
2026-05-06 23:31 42.40562 -70.98536 706 ft 124 kts 201°
2026-05-06 23:31 42.39750 -70.98929 555 ft 125 kts 200°
2026-05-06 23:31 42.38929 -70.99327 386 ft 123 kts 199°
2026-05-06 23:31 42.38117 -70.99721 231 ft 125 kts 199°
2026-05-06 23:32 42.37299 -71.00117 62 ft 125 kts 198°
2026-05-06 23:32 42.36550 -71.00479 27 ft 94 kts 200°
2026-05-06 23:32 42.36095 -71.00701 21 ft 45 kts 199°
2026-05-06 23:32 42.35937 -71.00776 22 ft 17 kts 200°
2026-05-06 23:33 42.35850 -71.00847 22 ft 13 kts 213°
2026-05-06 23:33 42.35815 -71.00927 22 ft 10 kts 270°
2026-05-06 23:33 42.35830 -71.01034 23 ft 13 kts 284°
2026-05-06 23:33 42.35856 -71.01158 23 ft 14 kts 273°
2026-05-06 23:34 42.35853 -71.01301 24 ft 16 kts 272°
2026-05-06 23:34 42.35855 -71.01452 26 ft 12 kts 284°
2026-05-06 23:34 42.35871 -71.01504 26 ft 4 kts 296°
2026-05-06 23:34 42.35873 -71.01509 26 ft 0 kts 297°
2026-05-06 23:35 42.35875 -71.01514 26 ft 2 kts 296°
2026-05-06 23:35 42.35881 -71.01536 27 ft 3 kts 290°
2026-05-06 23:35 42.35887 -71.01564 27 ft 3 kts 284°
2026-05-06 23:35 42.35910 -71.01613 28 ft 12 kts 323°
2026-05-06 23:36 42.36003 -71.01591 27 ft 16 kts 20°
2026-05-06 23:36 42.36106 -71.01540 29 ft 13 kts 19°
2026-05-06 23:36 42.36203 -71.01492 24 ft 17 kts 18°
2026-05-06 23:36 42.36314 -71.01441 21 ft 13 kts 18°
2026-05-06 23:37 42.36403 -71.01398 22 ft 14 kts 20°
2026-05-06 23:37 42.36468 -71.01364 23 ft 4 kts 22°
2026-05-06 23:37 42.36503 -71.01368 23 ft 6 kts 327°
2026-05-06 23:37 42.36525 -71.01391 23 ft 2 kts 327°
2026-05-06 23:38 42.36543 -71.01406 23 ft 3 kts 328°
2026-05-06 23:38 42.36553 -71.01414 23 ft 0 kts 328°